This is the latest recevied weather packets stored in our database for station/object WB0RXX. If no packets are shown the sender has not sent any weather packets the latest 10 day(s).
| Time | Temp. | Humidity | Pressure | Rain* | Wind** | Luminosity | Snow |
|---|---|---|---|---|---|---|---|
| 1777843805 | 22.22° C | 28% | 1007.1 hPa | 0 mm | - | - | - |
| 1777843203 | 21.67° C | 28% | 1007.2 hPa | 0 mm | - | - | - |
| 1777842603 | 21.67° C | 29% | 1007.6 hPa | 0 mm | - | - | - |
| 1777842004 | 21.67° C | 28% | 1007.7 hPa | 0 mm | - | - | - |
| 1777841403 | 21.67° C | 31% | 1007.9 hPa | 0 mm | - | - | - |
| 1777840803 | 21.67° C | 30% | 1008 hPa | 0 mm | - | - | - |
| 1777840219 | 21.11° C | 31% | 1008.1 hPa | 0 mm | - | - | - |
| 1777839605 | 21.11° C | 33% | 1008.3 hPa | 0 mm | - | - | - |
| 1777839004 | 21.11° C | 33% | 1008.6 hPa | 0 mm | - | - | - |
| 1777838404 | 20° C | 33% | 1008.8 hPa | 0 mm | - | - | - |
| 1777837804 | 20° C | 34% | 1008.9 hPa | 0 mm | - | - | - |
| 1777837204 | 20° C | 36% | 1008.9 hPa | 0 mm | - | - | - |
| 1777836604 | 20° C | 35% | 1008.9 hPa | 0 mm | - | - | - |
| 1777836004 | 20° C | 36% | 1009.1 hPa | 0 mm | - | - | - |
| 1777835405 | 20° C | 36% | 1009.2 hPa | 0 mm | - | - | - |
| 1777834820 | 20° C | 37% | 1009.7 hPa | 0 mm | - | - | - |
| 1777834204 | 20° C | 38% | 1009.7 hPa | 0 mm | - | - | - |
| 1777833605 | 19.44° C | 36% | 1009.9 hPa | 0 mm | - | - | - |
| 1777833005 | 19.44° C | 37% | 1009.8 hPa | 0 mm | - | - | - |
| 1777832404 | 19.44° C | 37% | 1010 hPa | 0 mm | - | - | - |
| 1777831803 | 19.44° C | 39% | 1010 hPa | 0 mm | - | - | - |
| 1777831204 | 19.44° C | 38% | 1010.1 hPa | 0 mm | - | - | - |
| 1777830603 | 18.89° C | 39% | 1010.2 hPa | 0 mm | - | - | - |
| 1777830004 | 18.33° C | 38% | 1010.3 hPa | 0 mm | - | - | - |
| 1777829404 | 18.33° C | 39% | 1010.3 hPa | 0 mm | - | - | - |
* Rain latest hour (hover to see other rain measurements)
** Current wind speed in m/s (hover to see current wind gust speed)